Home > Time Zones > World Clock > Weather > U.S.A. > Reno > Past weeks

Flag for U.S.A. Weather past 2 weeks in Reno, Nevada, U.S.A.

Now
44 °F

Passing clouds.


Feels Like: 40 °F
Forecast: 40 / 62 °F
Wind: 8 mph from North

Location: Reno Tahoe International Airport

Current Time: Apr 26, 2015 at 6:45:46 AM

Latest Report: Apr 26, 2015 at 5:55 AM


Visibility: 10 mi

Pressure: 30.02 "Hg

Humidity: 53%

Dew point: 28 °F

Location of RenoLocation

Historic Weather in Reno — Graph

°F

Reno temperature yesterday

Maximum temperature yesterday: 55 °F (at 2:55 PM)
Minimum temperature yesterday: 40 °F (at 5:55 AM)
Average temperature yesterday: 47 °F

Past Weeks' High & Low Weather Summary

 TemperatureHumidityPressure
High79 °F (Apr 20, 3:55 PM)89% (Apr 25, 8:55 AM)30.32 "Hg (Apr 25, 8:55 AM)
Low28 °F (Apr 15, 6:55 AM)5% (Apr 17, 5:55 PM)29.64 "Hg (Apr 23, 4:55 PM)
Average54 °F34%29.95 "Hg
* Reported Apr 11 5:55 AM — Apr 26 5:55 AM, Reno, Weather by CustomWeather, © 2015

Note: Actual official high and low records may vary slightly from our data, if they occured in-between our weather recording intervals... More about our weather records

Advertising

Reno weather history for previous 24 hours

 ConditionsComfort  
Time TempWeatherWind HumidityBarometerVisibility
5:55 AM
Sun, Apr 26
44 °FPassing clouds.8 mph53%30.02 "Hg10 mi
4:55 AM44 °FPassing clouds.12 mph53%30.00 "Hg10 mi
3:55 AM44 °FPassing clouds.9 mph63%29.99 "Hg10 mi
2:55 AM44 °FPassing clouds.10 mph63%29.98 "Hg10 mi
1:55 AM45 °FPassing clouds.9 mph56%29.97 "Hg10 mi
12:55 AM46 °FPassing clouds.9 mph54%29.95 "Hg10 mi
11:55 PM
Sat, Apr 25
47 °FPartly cloudy.8 mph54%29.94 "Hg10 mi
10:55 PM47 °FPassing clouds.14 mph54%29.94 "Hg10 mi
9:55 PM48 °FPartly cloudy.13 mph52%29.93 "Hg10 mi
8:55 PM50 °FPartly cloudy.7 mph41%29.92 "Hg10 mi
7:55 PM51 °FBroken clouds.12 mph38%29.89 "Hg10 mi
6:55 PM52 °FBroken clouds.16 mph37%29.85 "Hg10 mi
5:55 PM55 °FPartly sunny.20 mph30%29.82 "Hg10 mi
4:55 PM55 °FPartly sunny.16 mph34%29.81 "Hg10 mi
3:55 PM54 °FPartly sunny.16 mph33%29.80 "Hg10 mi
2:55 PM55 °FBroken clouds.17 mph35%29.80 "Hg10 mi
1:55 PM48 °FLight rain. Partly sunny.13 mph59%29.83 "Hg10 mi
12:55 PM51 °FBroken clouds.13 mph48%29.80 "Hg10 mi
11:55 AM50 °FPartly sunny.16 mph46%29.81 "Hg10 mi
10:55 AM46 °FPartly sunny.12 mph66%29.83 "Hg10 mi
9:55 AM42 °FMore clouds than sun.13 mph76%29.81 "Hg10 mi
8:55 AM40 °FMostly cloudy.16 mph89%29.80 "Hg10 mi
7:55 AM41 °FLight rain. Mostly cloudy.13 mph82%29.76 "Hg10 mi
6:55 AM42 °FOvercast.7 mph82%29.74 "Hg10 mi
Weather by CustomWeather, © 2015

See weather overviewHow to use our weather pages